Showing default

PTD-4, 60565

Orbit data source: Space-Track

PTD-4, 60565 is an American payload satellite in SSO that was launched on Fri, 16 Aug 2024 UTC via an FALCON 9 launch vehicle from the Air Force Western Test Range (AFWTR). Payload-class satellites include a variety of spacecraft equipped with specific instruments for various scientific and technological missions. These include communications satellites like Starlink; space stations such as the ISS; scientific satellites like the Hubble; Earth observation satellites from companies like Planet Labs, Umbra, and HawkEye 360; GPS; miniature CubeSats for education and research; and military/defense satellites.

Loading next visibility...
Identifier
60565, 2024-149DB
Orbit
SSO
Country
Flag of USUS
Related business
Manufacturer
Terran Orbital
Mission
Operational Civil Technology
Bus & Motor
CUBESAT 6U, Unknown motor
Mass
~10 kg wet, ~10 kg dry
Launch date (UTC)
2024-08-16 (2 years ago)
Launch vehicle
FALCON 9
Launch site
Air Force Western Test Range (AFWTR)
Object type
Payload
Rocket body
Debris
Shape & HBR
Box + 2 Pan, 1.1 m
Radar Cross Section
0.189 m², Medium (>0.1 m² and < 1m²)

Expand to show TLE details & history
Last TLE update: 4 hours ago

TLE from 4 hours ago
0 PTD-4
1 60565U 24149DB  26126.23623057  .00017077  00000-0  78588-3 0  9998
2 60565  97.6955 214.2050 0003799 171.0396 189.0907 15.20390963 94447
Epoch: 2026-05-06T05:40Z
TLE epoch observation values (Epoch: 2026-05-06T05:40:10.321Z)
Latitude
-0.00001°
Longitude
-94.93762°
Altitude
510.325 km
Speed
7.607 km/s
True Right ascension
14h 16m 49s
True Declination
0° 00' 00"
Sunlit
Object was in full shadow at epoch
Visualization orbit readout
Latitude
Unknown
Longitude
Unknown
Altitude
Unknown
Speed
Unknown
Apparent Right ascension
Unknown
Apparent Declination
Unknown
Sunlit
N/A
Visualization observer readout
Local Sidereal Time
17:31:32
Azimuth
Unknown
Elevation
Unknown
Doppler factor
Unknown
Orbital elements
Apogee altitude
504.252 km
Perigee altitude
499.025 km
Semi-major axis
6,879.775 km
Eccentricity
0.00038
Inclination
97.6955°
RAAN
214.205°
Arg. of periapsis
171.0396°
True anomaly
189.08383°
Mean anomaly
189.0907°
Eccentric anomaly
189.08726°
Mean motion
3.80349 °/min
Orbital period
94.65 mins
BSTAR
0.00078588
Loading maneuver chart data...
Computing Atmospheric mass density...
Loading historical data...
Loading historical data...
Loading historical data...
Loading historical data...
Loading historical data...
Loading historical data...
Loading historical data...

Documentation

Showing up to 5 results
|